FW5145 Weather Reports


Display with metric or nautical units.
time (UTC)temp
F
wind
direction
speed
MPH
gust
MPH
rain 1hr
in
rain 24hr
in
rain mn
in
humidity
%
barometer
mb
20260509093533 63 0 1.0 8.0 0.00 0.00 0.00 100 1018.2
20260509093056 63 11 2.0 8.0 0.00 0.00 0.00 100 1018.2
20260509092533 63 24 2.0 6.0 0.00 0.00 0.00 100 1018.3
20260509092032 63 41 1.0 5.0 0.00 0.00 0.00 100 1018.3
20260509091548 62 0 0.0 4.0 0.00 0.00 0.00 100 1018.3
20260509091032 62 11 0.0 4.0 0.00 0.00 0.00 100 1018.4
20260509090533 61 13 1.0 4.0 0.00 0.00 0.00 100 1018.5
20260509090050 61 0 1.0 4.0 0.00 0.00 0.00 100 1018.4
20260509085534 61 91 1.0 5.0 0.00 0.00 0.00 100 1018.4
20260509085032 60 50 1.0 5.0 0.00 0.00 0.00 100 1018.4
20260509084554 60 40 2.0 5.0 0.00 0.00 0.00 100 1018.2
20260509084035 60 5 1.0 6.0 0.00 0.00 0.00 100 1018.2
20260509083534 60 5 2.0 6.0 0.00 0.00 0.00 100 1018.4
20260509083048 60 32 2.0 5.0 0.00 0.00 0.00 100 1018.3
20260509082535 59 0 1.0 5.0 0.00 0.00 0.00 100 1018.3
20260509082034 59 5 2.0 5.0 0.00 0.00 0.00 100 1018.1
20260509081552 59 16 1.0 5.0 0.00 0.00 0.00 100 1018.2
20260509081032 58 55 0.0 4.0 0.00 0.00 0.00 100 1018.2
20260509080535 58 71 1.0 3.0 0.00 0.00 0.00 100 1018.2
20260509080053 58 40 1.0 4.0 0.00 0.00 0.00 100 1018.2
20260509075535 57 37 1.0 4.0 0.00 0.00 0.00 100 1018.3
20260509075037 57 40 2.0 4.0 0.00 0.00 0.00 100 1018.3
20260509074542 57 0 0.0 4.0 0.00 0.00 0.00 100 1018.2
20260509074032 56 73 1.0 4.0 0.00 0.00 0.00 100 1018.3
20260509073535 56 0 1.0 5.0 0.00 0.00 0.00 100 1018.2
20260509073045 56 0 1.0 5.0 0.00 0.00 0.00 100 1018.3
20260509072532 55 25 0.0 3.0 0.00 0.00 0.00 100 1018.2
20260509072034 55 0 0.0 3.0 0.00 0.00 0.00 100 1018.2
20260509071553 55 25 0.0 3.0 0.00 0.00 0.00 100 1018.1
20260509071035 54 0 0.0 3.0 0.00 0.00 0.00 100 1018.1
20260509070532 54 0 0.0 2.0 0.00 0.00 0.00 100 1018.1
20260509070046 54 0 0.0 2.0 0.00 0.00 0.00 100 1018.0
20260509065533 53 0 0.0 2.0 0.00 0.00 0.00 100 1018.0
20260509065031 52 0 0.0 2.0 0.00 0.00 0.00 100 1017.9
20260509064545 52 0 0.0 0.0 0.00 0.00 0.00 100 1017.9
20260509064035 51 0 0.0 0.0 0.00 0.00 0.00 100 1017.8
20260509063536 50 0 0.0 0.0 0.00 0.00 0.00 100 1017.8
20260509063046 50 0 0.0 0.0 0.00 0.00 0.00 100 1017.8
20260509062532 49 0 0.0 0.0 0.00 0.00 0.00 100 1017.9
20260509062035 49 0 0.0 0.0 0.00 0.00 0.00 100 1017.9
20260509061540 48 0 0.0 0.0 0.00 0.00 0.00 100 1017.9
20260509061035 48 0 0.0 0.0 0.00 0.00 0.00 100 1018.0
20260509060532 48 0 0.0 0.0 0.00 0.00 0.00 100 1017.9
20260509060047 47 0 0.0 0.0 0.00 0.00 0.00 100 1017.9
20260509055532 47 0 0.0 0.0 0.00 0.00 0.00 100 1017.9
20260509055032 47 0 0.0 0.0 0.00 0.00 0.00 100 1017.8
20260509054550 46 0 0.0 0.0 0.00 0.00 0.00 100 1017.9
20260509054032 46 0 0.0 0.0 0.00 0.00 0.00 100 1018.0
20260509053532 46 0 0.0 0.0 0.00 0.00 0.00 100 1017.8
20260509053046 46 0 0.0 0.0 0.00 0.00 0.00 100 1017.8
20260509052535 46 0 0.0 0.0 0.00 0.00 0.00 100 1017.8
20260509052033 45 0 0.0 0.0 0.00 0.00 0.00 100 1017.8
20260509051542 45 0 0.0 0.0 0.00 0.00 0.00 100 1017.8
20260509051035 45 0 0.0 0.0 0.00 0.00 0.00 100 1017.8
20260509050535 45 0 0.0 0.0 0.00 0.00 0.00 100 1017.8
20260509050046 45 0 0.0 0.0 0.00 0.00 0.00 100 1017.8
20260509045534 45 0 0.0 0.0 0.00 0.00 0.00 100 1017.8
20260509045032 45 0 0.0 0.0 0.00 0.00 0.00 100 1017.8
20260509044539 45 0 0.0 0.0 0.00 0.00 0.00 100 1017.8
20260509044032 44 0 0.0 0.0 0.00 0.00 0.00 100 1017.9
20260509043531 44 0 0.0 0.0 0.00 0.00 0.00 100 1017.8
20260509043043 44 0 0.0 0.0 0.00 0.00 0.00 100 1017.8
20260509042534 44 0 0.0 0.0 0.00 0.00 0.00 100 1017.8
20260509042032 44 0 0.0 0.0 0.00 0.00 0.00 100 1017.8
20260509041543 44 0 0.0 0.0 0.00 0.00 0.00 100 1017.7
20260509041036 45 0 0.0 0.0 0.00 0.00 0.00 100 1017.8
20260509040535 45 0 0.0 0.0 0.00 0.00 0.00 100 1017.8
20260509040044 45 0 0.0 0.0 0.00 0.00 0.00 100 1017.9
20260509035537 45 0 0.0 0.0 0.00 0.00 0.00 100 1017.8
20260509035033 45 0 0.0 0.0 0.00 0.00 0.00 100 1017.8
20260509034545 45 0 0.0 0.0 0.00 0.00 0.00 100 1017.8
20260509034034 45 0 0.0 0.0 0.00 0.00 0.00 100 1017.8
20260509033532 46 0 0.0 0.0 0.00 0.00 0.00 100 1017.9
20260509033045 46 0 0.0 0.0 0.00 0.00 0.00 100 1017.7
20260509032533 46 0 0.0 0.0 0.00 0.00 0.00 100 1017.8
20260509032031 46 0 0.0 0.0 0.00 0.00 0.00 100 1017.9
20260509031537 46 0 0.0 0.0 0.00 0.00 0.00 100 1017.8
20260509031032 46 0 0.0 0.0 0.00 0.00 0.00 100 1017.8
20260509030536 46 0 0.0 0.0 0.00 0.00 0.00 100 1017.9
20260509030051 46 0 0.0 0.0 0.00 0.00 0.00 100 1018.0
20260509025536 46 0 0.0 0.0 0.00 0.00 0.00 100 1018.0
20260509025035 46 0 0.0 0.0 0.00 0.00 0.00 100 1018.0
20260509024550 46 0 0.0 0.0 0.00 0.00 0.00 100 1018.1
20260509024035 46 0 0.0 0.0 0.00 0.00 0.00 100 1018.2
20260509023532 46 0 0.0 0.0 0.00 0.00 0.00 100 1018.1
20260509023049 46 0 0.0 0.0 0.00 0.00 0.00 100 1018.0
20260509022539 46 0 0.0 0.0 0.00 0.00 0.00 100 1018.0
20260509022034 46 0 0.0 0.0 0.00 0.00 0.00 100 1018.0
20260509021546 46 0 0.0 0.0 0.00 0.00 0.00 100 1018.0
20260509021032 46 0 0.0 0.0 0.00 0.00 0.00 100 1018.0
20260509020531 46 0 0.0 0.0 0.00 0.00 0.00 100 1018.0
20260509020043 46 0 0.0 0.0 0.00 0.00 0.00 100 1018.0
20260509015532 46 0 0.0 0.0 0.00 0.00 0.00 100 1018.0
20260509015032 46 0 0.0 0.0 0.00 0.00 0.00 100 1018.1
20260509014545 46 0 0.0 0.0 0.00 0.00 0.00 100 1018.1
20260509014033 46 0 0.0 0.0 0.00 0.00 0.00 100 1018.1
20260509013533 46 0 0.0 0.0 0.00 0.00 0.00 100 1018.1
20260509013051 46 0 0.0 0.0 0.00 0.00 0.00 100 1018.1
20260509012532 46 0 0.0 0.0 0.00 0.00 0.00 100 1018.2
20260509012035 46 0 0.0 0.0 0.00 0.00 0.00 100 1018.1
20260509011548 47 0 0.0 0.0 0.00 0.00 0.00 100 1018.2
20260509011035 47 0 0.0 0.0 0.00 0.00 0.00 100 1018.3
20260509010532 47 0 0.0 0.0 0.00 0.00 0.00 100 1018.2
20260509010045 47 0 0.0 0.0 0.00 0.00 0.00 100 1018.3
20260509005533 47 0 0.0 0.0 0.00 0.00 0.00 100 1018.3
20260509005032 47 0 0.0 0.0 0.00 0.00 0.00 100 1018.2
20260509004543 47 0 0.0 0.0 0.00 0.00 0.00 100 1018.2
20260509004036 47 0 0.0 0.0 0.00 0.00 0.00 100 1018.2
20260509003536 47 0 0.0 0.0 0.00 0.00 0.00 100 1018.3
20260509003047 47 0 0.0 0.0 0.00 0.00 0.00 100 1018.4
20260509002535 47 0 0.0 0.0 0.00 0.00 0.00 100 1018.4
20260509002035 47 0 0.0 0.0 0.00 0.00 0.00 100 1018.4
20260509001550 47 0 0.0 0.0 0.00 0.00 0.00 100 1018.4
20260509001032 47 0 0.0 0.0 0.00 0.00 0.00 100 1018.4
20260509000539 47 0 0.0 0.0 0.00 0.00 0.00 100 1018.4
20260509000040 47 0 0.0 0.0 0.00 0.00 0.00 100 1018.5
20260508235534 47 0 0.0 0.0 0.00 0.00 0.00 100 1018.4
20260508235033 47 0 0.0 0.0 0.00 0.00 0.00 100 1018.4
20260508234545 47 0 0.0 0.0 0.00 0.00 0.00 100 1018.5
20260508234034 48 0 0.0 0.0 0.00 0.00 0.00 100 1018.5
20260508233532 48 0 0.0 0.0 0.00 0.00 0.00 100 1018.4
20260508233052 48 0 0.0 0.0 0.00 0.00 0.00 100 1018.5
20260508232531 48 0 0.0 0.0 0.00 0.00 0.00 100 1018.6
20260508232031 48 0 0.0 0.0 0.00 0.00 0.00 100 1018.6
20260508231547 49 0 0.0 0.0 0.00 0.00 0.00 100 1018.7
20260508231032 49 0 0.0 0.0 0.00 0.00 0.00 100 1018.6
20260508230537 49 0 0.0 0.0 0.00 0.00 0.00 100 1018.5
20260508230052 49 0 0.0 0.0 0.00 0.00 0.00 100 1018.3
20260508225533 49 0 0.0 0.0 0.00 0.00 0.00 100 1018.4
20260508225032 49 0 0.0 0.0 0.00 0.00 0.00 100 1018.6
20260508224542 49 0 0.0 0.0 0.00 0.00 0.00 100 1018.6
20260508224032 49 0 0.0 0.0 0.00 0.00 0.00 100 1018.7
20260508223532 50 0 0.0 0.0 0.00 0.00 0.00 100 1018.7
20260508223037 50 0 0.0 0.0 0.00 0.00 0.00 100 1018.7
20260508222531 50 0 0.0 0.0 0.00 0.00 0.00 100 1018.7
20260508222032 50 0 0.0 0.0 0.00 0.00 0.00 100 1018.7
20260508221535 50 0 0.0 0.0 0.00 0.00 0.00 100 1018.9
20260508221032 50 0 0.0 0.0 0.00 0.00 0.00 100 1018.8
20260508220531 50 0 0.0 0.0 0.00 0.00 0.00 100 1018.7
20260508220043 50 0 0.0 0.0 0.00 0.00 0.00 100 1018.7
20260508215535 50 0 0.0 0.0 0.00 0.00 0.00 100 1018.7
20260508215032 50 0 0.0 0.0 0.00 0.00 0.00 100 1018.7
20260508214541 50 0 0.0 0.0 0.00 0.00 0.00 100 1018.7
20260508214031 50 0 0.0 0.0 0.00 0.00 0.00 100 1018.6
20260508213534 50 0 0.0 0.0 0.00 0.00 0.00 100 1018.7
20260508213041 50 0 0.0 0.0 0.00 0.00 0.00 100 1018.6
20260508212533 51 0 0.0 0.0 0.00 0.00 0.00 100 1018.5
20260508212033 51 0 0.0 0.0 0.00 0.00 0.00 100 1018.5
20260508211541 51 0 0.0 0.0 0.00 0.00 0.00 100 1018.5
20260508211033 51 0 0.0 0.0 0.00 0.00 0.00 100 1018.5
20260508210532 51 0 0.0 0.0 0.00 0.00 0.00 100 1018.5
20260508210045 51 0 0.0 0.0 0.00 0.00 0.00 100 1018.5
20260508205531 51 0 0.0 0.0 0.00 0.00 0.00 100 1018.5
20260508205033 51 0 0.0 0.0 0.00 0.00 0.00 100 1018.5
20260508204550 52 0 0.0 0.0 0.00 0.00 0.00 100 1018.4
20260508204031 52 0 0.0 0.0 0.00 0.00 0.00 100 1018.4
20260508203534 52 0 0.0 0.0 0.00 0.00 0.00 100 1018.3
20260508203050 52 0 0.0 0.0 0.00 0.00 0.00 100 1018.3
20260508202536 52 0 0.0 0.0 0.00 0.00 0.00 100 1018.2
20260508202032 53 0 0.0 0.0 0.00 0.00 0.00 100 1018.2
20260508201543 53 0 0.0 0.0 0.00 0.00 0.00 100 1018.1
20260508201032 53 0 0.0 0.0 0.00 0.00 0.00 100 1018.1
20260508200532 53 0 0.0 0.0 0.00 0.00 0.00 100 1018.0
20260508200047 54 0 0.0 0.0 0.00 0.00 0.00 100 1017.9
20260508195533 54 0 0.0 0.0 0.00 0.00 0.00 100 1017.9
20260508195036 54 0 0.0 0.0 0.00 0.00 0.00 100 1017.8
20260508194544 54 0 0.0 0.0 0.00 0.00 0.00 100 1017.9
20260508194031 55 0 0.0 0.0 0.00 0.00 0.00 100 1017.8
20260508193531 55 0 0.0 0.0 0.00 0.00 0.00 100 1017.7
20260508193044 55 0 0.0 0.0 0.00 0.00 0.00 100 1017.7
20260508192533 56 0 0.0 0.0 0.00 0.00 0.00 100 1017.7
20260508192034 56 0 0.0 0.0 0.00 0.00 0.00 100 1017.6
20260508191550 57 0 0.0 0.0 0.00 0.00 0.00 100 1017.5
20260508191032 58 0 0.0 0.0 0.00 0.00 0.00 100 1017.5
20260508190532 58 0 0.0 0.0 0.00 0.00 0.00 100 1017.5
20260508190042 59 0 0.0 0.0 0.00 0.00 0.00 100 1017.4
20260508185533 59 0 0.0 0.0 0.00 0.00 0.00 100 1017.4
20260508185033 60 0 0.0 0.0 0.00 0.00 0.00 100 1017.3
20260508184544 60 0 0.0 0.0 0.00 0.00 0.00 100 1017.3
20260508184038 61 0 0.0 0.0 0.00 0.00 0.00 100 1017.3
20260508183532 61 0 0.0 0.0 0.00 0.00 0.00 100 1017.3
20260508183036 61 0 0.0 0.0 0.00 0.00 0.00 100 1017.3
20260508182533 62 0 0.0 0.0 0.00 0.00 0.00 100 1017.1
20260508182034 62 0 0.0 0.0 0.00 0.00 0.00 100 1017.2
20260508181544 62 0 0.0 0.0 0.00 0.00 0.00 100 1017.0
20260508181032 62 0 0.0 0.0 0.00 0.00 0.00 100 1017.0
20260508180532 62 0 0.0 1.0 0.00 0.00 0.00 100 1017.0
20260508180043 62 0 0.0 2.0 0.00 0.00 0.00 100 1017.0
20260508175532 62 0 0.0 2.0 0.00 0.00 0.00 100 1016.8
20260508175037 62 0 0.0 2.0 0.00 0.00 0.00 100 1017.0
20260508174603 62 0 0.0 3.0 0.00 0.00 0.00 100 1016.8
20260508174032 62 360 0.0 3.0 0.00 0.00 0.00 100 1016.9
20260508173532 62 352 0.0 3.0 0.00 0.00 0.00 100 1017.0
20260508173050 62 0 0.0 2.0 0.00 0.00 0.00 100 1017.0
20260508172536 62 0 0.0 2.0 0.00 0.00 0.00 100 1016.9
20260508172032 63 0 0.0 1.0 0.00 0.00 0.00 100 1016.8
20260508171545 63 0 0.0 0.0 0.00 0.00 0.00 100 1016.8
20260508171031 63 0 0.0 0.0 0.00 0.00 0.00 100 1016.9
20260508170532 63 0 0.0 0.0 0.00 0.00 0.00 100 1016.8
20260508170050 63 0 0.0 0.0 0.00 0.00 0.00 100 1016.8
20260508165531 64 0 0.0 0.0 0.00 0.00 0.00 100 1016.8
20260508165032 64 0 0.0 2.0 0.00 0.00 0.00 100 1016.8
20260508164548 64 0 0.0 2.0 0.00 0.00 0.00 100 1016.7
20260508164033 64 0 0.0 2.0 0.00 0.00 0.00 100 1016.7
20260508163534 64 292 0.0 2.0 0.00 0.00 0.00 100 1016.7
20260508163042 64 40 0.0 2.0 0.00 0.00 0.00 100 1016.6
20260508162532 64 0 0.0 2.0 0.00 0.00 0.00 100 1016.6
20260508162031 64 0 0.0 0.0 0.00 0.00 0.00 100 1016.5
20260508161548 64 0 0.0 0.0 0.00 0.00 0.00 100 1016.5
20260508161032 64 0 0.0 0.0 0.00 0.00 0.00 100 1016.6
20260508160531 64 0 0.0 0.0 0.00 0.00 0.00 100 1016.6
20260508160049 64 0 0.0 0.0 0.00 0.00 0.00 100 1016.6
20260508155534 64 0 0.0 0.0 0.00 0.00 0.00 100 1016.7
20260508155032 64 0 0.0 0.0 0.00 0.00 0.00 100 1016.6
20260508154554 64 0 0.0 2.0 0.00 0.00 0.00 100 1016.6
20260508154032 64 0 0.0 3.0 0.00 0.00 0.00 100 1016.6
20260508153534 64 0 1.0 4.0 0.00 0.00 0.00 100 1016.5
20260508153043 64 29 1.0 4.0 0.00 0.00 0.00 100 1016.6
20260508152533 64 30 1.0 4.0 0.00 0.00 0.00 100 1016.7
20260508152032 64 0 0.0 6.0 0.00 0.00 0.00 100 1016.6
20260508151550 64 0 0.0 7.0 0.00 0.00 0.00 100 1016.6
20260508151032 64 38 1.0 7.0 0.00 0.00 0.00 100 1016.6
20260508150534 64 12 0.0 3.0 0.00 0.00 0.00 100 1016.6
20260508150047 63 0 0.0 2.0 0.00 0.00 0.00 100 1016.7
20260508145533 63 0 0.0 2.0 0.00 0.00 0.00 100 1016.6
20260508145033 63 0 0.0 3.0 0.00 0.00 0.00 100 1016.7
20260508144549 63 0 1.0 4.0 0.00 0.00 0.00 100 1016.7
20260508144032 64 12 0.0 4.0 0.00 0.00 0.00 100 1016.7
20260508143534 64 39 1.0 4.0 0.00 0.00 0.00 100 1016.7
20260508143052 64 28 0.0 3.0 0.00 0.00 0.00 100 1016.7
20260508142531 64 48 0.0 3.0 0.00 0.00 0.00 100 1016.7
20260508142035 64 0 0.0 3.0 0.00 0.00 0.00 100 1016.7
20260508141540 64 28 1.0 3.0 0.00 0.00 0.00 100 1016.7
20260508141032 65 0 0.0 2.0 0.00 0.00 0.00 100 1016.8
20260508140532 64 0 0.0 2.0 0.00 0.00 0.00 100 1016.8
20260508140055 64 0 0.0 2.0 0.00 0.00 0.00 100 1016.8
20260508135532 64 0 0.0 2.0 0.00 0.00 0.00 100 1016.8
20260508135035 65 18 0.0 4.0 0.00 0.00 0.00 100 1016.9
20260508134551 65 0 0.0 4.0 0.00 0.00 0.00 100 1016.8
20260508134033 65 0 1.0 4.0 0.00 0.00 0.00 100 1016.7
20260508133535 65 142 0.0 4.0 0.00 0.00 0.00 100 1016.8
20260508133056 64 26 1.0 4.0 0.00 0.00 0.00 100 1016.8
20260508132533 64 30 1.0 3.0 0.00 0.00 0.00 100 1016.9
20260508132034 64 51 0.0 3.0 0.00 0.00 0.00 100 1017.0
20260508131544 64 0 2.0 3.0 0.00 0.00 0.00 100 1016.9
20260508131032 63 20 1.0 3.0 0.00 0.00 0.00 100 1017.0
20260508130531 63 68 0.0 3.0 0.00 0.00 0.00 100 1017.0
20260508130059 63 12 0.0 2.0 0.00 0.00 0.00 100 1017.0
20260508125533 63 0 0.0 3.0 0.00 0.00 0.00 100 1017.1
20260508125032 63 0 0.0 3.0 0.00 0.00 0.00 100 1017.1
20260508124550 63 0 0.0 3.0 0.00 0.00 0.00 100 1017.0
20260508124032 62 360 0.0 3.0 0.00 0.00 0.00 100 1017.1
20260508123533 62 0 0.0 2.0 0.00 0.00 0.00 100 1017.0
20260508123051 62 0 0.0 3.0 0.00 0.00 0.00 100 1017.0
20260508122533 62 0 0.0 4.0 0.00 0.00 0.00 100 1017.1
20260508122035 63 0 1.0 4.0 0.00 0.00 0.00 100 1017.0
20260508121602 63 68 0.0 2.0 0.00 0.00 0.00 100 1017.1
20260508121033 63 229 0.0 3.0 0.00 0.00 0.00 100 1017.2
20260508120532 63 0 0.0 5.0 0.00 0.00 0.00 100 1017.2
20260508120048 62 15 1.0 5.0 0.00 0.00 0.00 100 1017.2
20260508115533 62 5 1.0 4.0 0.00 0.00 0.00 100 1017.2
20260508115032 62 68 0.0 3.0 0.00 0.00 0.00 100 1017.2
20260508114549 61 5 0.0 4.0 0.00 0.00 0.00 100 1017.3
20260508114033 61 63 1.0 4.0 0.00 0.00 0.00 100 1017.3
20260508113534 62 9 1.0 4.0 0.00 0.00 0.00 100 1017.2
20260508113054 62 327 0.0 3.0 0.00 0.00 0.00 100 1017.2
20260508112534 62 323 1.0 3.0 0.00 0.00 0.00 100 1017.2
20260508112032 62 21 1.0 4.0 0.00 0.00 0.00 100 1017.2
20260508111552 62 22 1.0 4.0 0.00 0.00 0.00 100 1017.2
20260508111034 62 0 1.0 6.0 0.00 0.00 0.00 100 1017.2
20260508110534 62 0 1.0 6.0 0.00 0.00 0.00 100 1017.2
20260508110043 62 0 0.0 3.0 0.00 0.00 0.00 100 1017.2
20260508105532 61 19 0.0 5.0 0.00 0.00 0.00 100 1017.1
20260508105037 61 28 1.0 5.0 0.00 0.00 0.00 100 1017.1
20260508104549 61 34 0.0 3.0 0.00 0.00 0.00 100 1017.2
20260508104033 60 0 0.0 3.0 0.00 0.00 0.00 100 1017.2
20260508103533 60 0 0.0 3.0 0.00 0.00 0.00 100 1017.2
20260508103049 60 0 0.0 2.0 0.00 0.00 0.00 100 1017.3
20260508102532 59 0 0.0 5.0 0.00 0.00 0.00 100 1017.3
20260508102033 59 0 0.0 5.0 0.00 0.00 0.00 100 1017.3
20260508101547 59 33 0.0 3.0 0.00 0.00 0.00 100 1017.4
20260508101032 59 344 0.0 4.0 0.00 0.00 0.00 100 1017.2
20260508100534 59 250 1.0 4.0 0.00 0.00 0.00 100 1017.2
20260508100042 58 0 0.0 2.0 0.00 0.00 0.00 100 1017.2
20260508095532 58 0 0.0 3.0 0.00 0.00 0.00 100 1017.3
20260508095034 58 26 0.0 3.0 0.00 0.00 0.00 100 1017.3
20260508094547 58 5 1.0 3.0 0.00 0.00 0.00 100 1017.2
20260508094032 57 32 0.0 3.0 0.00 0.00 0.00 100 1017.2